User: anonymous   Login
Location: Caltech
(34.1382°N, 118.1253°W)
Time: 10:36:18
(UTC-07:00)
Language:

PANSAT - Orbit

View from above orbital plane
View from above orbital plane
View from above satellite
View from above satellite

Ground track
Ground track

The orbit data is extracted from the following two-line orbital elements,

1 25520U 98064B   15108.01995369  .00004849  00000-0  17556-3 0  9990
2 25520 028.4578 325.3285 0004001 226.7599 252.5383 15.25899807913200
Epoch (UTC): 18 April 2015 00:28:43
Eccentricity: 0.0004001
inclination: 28.4578°
perigee height: 485 km
apogee height: 491 km
right ascension of ascending node: 325.3285°
argument of perigee: 226.7599°
revolutions per day: 15.25899807
mean anomaly at epoch: 252.5383°
orbit number at epoch: 91320

The dashed part of the orbit path shows where the satellite is in the earth's shadow,  

DLR